Location: Betzi
(47.2343°N, 9.5260°E)
Time: 22:27:36
(UTC+00:00)

Lacrosse 5 - Pass Details

Date: 27 May 2022
Orbit: 714 x 724 km, 57.0° (Epoch: 09 March)

Event Time Altitude Azimuth Distance (km) Brightness Sun altitude
Exits shadow 01:46:10 17° 244° (WSW) 1,771 3.4 -13.9°
Maximum altitude 01:50:05 70° 326° (NW) 773 2.1 -13.5°
Drops below altitude 10° 01:55:11 10° 50° (NE) 2,217 5.8 -13.0°
Sets 01:57:35 0° 53° (NE) 3,138 6.8 -12.8°
